Weather History for KDLN - February, 2013

Change the Weather History Date:

Wednesday, February 27, 2013

  Actual Average Record
Temperature  
Mean Temperature 27 °F 30 °F  
Max Temperature 41 °F 41 °F 64 °F (1988)
Min Temperature 13 °F 18 °F -19 °F (1960)
Degree Days  
Heating Degree Days 38    
Month to date heating degree days 979  
Since 1 July heating degree days 5379  
Cooling Degree Days 0    
Month to date cooling degree days 0  
Year to date cooling degree days 0  
Moisture  
Dew Point 8 °F    
Average Humidity 46    
Maximum Humidity 67    
Minimum Humidity 25    
Precipitation  
Precipitation 0.00 in 0.01 in 0.04 in (2007)
Month to date precipitation 0.08 0.23  
Year to date precipitation 0.26 0.51  
Snow  
Snow 0.00 in - - ()
Snow Depth 0.00 in    
Sea Level Pressure  
Sea Level Pressure 30.34 in    
Wind  
Wind Speed 13 mph (North)    
Max Wind Speed 16 mph    
Max Gust Speed 20 mph    
Visibility 10 miles    
Events      
T = Trace of Precipitation, MM = Missing Value Source: NWS Daily Summary

Daily Weather History Graph

Daily Weather History Graph

Search for Another Location

Airport or City:

Trip Planner

Search our weather history database for the weather conditions in past years. The results will help you decide how hot, cold, wet, or windy it might be!

Date:

Astronomy

Feb. 27, 2013 Rise Set
Actual Time 7:11 AM MST 6:15 PM MST
Civil Twilight 6:41 AM MST 6:44 PM MST
Nautical Twilight 6:07 AM MST 7:19 PM MST
Astronomical Twilight 5:33 AM MST 7:53 PM MST
Moon 8:50 PM MST (2/27) 7:40 AM MST (2/27)
Length of Visible Light 12h 03m
Length of Day
11h 03m
Waning Gibbous, 96% of the Moon is Illuminated
Feb 27
Waning Gibbous
Mar 4
Last Quarter
Mar 11
New
Mar 19
First Quarter
Mar 27
Full

Hourly Weather History & Observations

Time (MST) Temp. Windchill Dew Point Humidity Pressure Visibility Wind Dir Wind Speed Gust Speed Precip Events Conditions
1:53 AM 15.1 °F 1.8 °F 6.1 °F 68% 30.34 in 10.0 mi South 11.5 mph - N/A   Clear
2:53 AM 15.1 °F - 5.0 °F 64% 30.35 in 10.0 mi North - - N/A   Clear
3:53 AM 15.1 °F - 5.0 °F 64% 30.35 in 10.0 mi North - - N/A   Clear
4:53 AM 17.1 °F - 6.1 °F 62% 30.34 in 10.0 mi North - - N/A   Overcast
5:53 AM 17.1 °F - 7.0 °F 65% 30.37 in 10.0 mi North - - N/A   Overcast
6:53 AM 17.1 °F - 7.0 °F 65% 30.38 in 10.0 mi North - - N/A   Overcast
7:53 AM 18.0 °F - 8.1 °F 65% 30.40 in 10.0 mi North - - N/A   Overcast
8:53 AM 19.9 °F - 8.1 °F 60% 30.41 in 10.0 mi North - - N/A   Overcast
10:53 AM 28.0 °F - 10.0 °F 47% 30.38 in 10.0 mi North - - N/A   Scattered Clouds
11:53 AM 33.1 °F - 9.0 °F 37% 30.35 in 10.0 mi North - - N/A   Clear
12:53 PM 36.0 °F - 8.1 °F 31% 30.32 in 10.0 mi North - - N/A   Clear
1:53 PM 39.0 °F - 8.1 °F 28% 30.28 in 10.0 mi North - - N/A   Clear
2:53 PM 41.0 °F - 9.0 °F 27% 30.26 in 10.0 mi North - - N/A   Clear
3:53 PM 39.0 °F - 10.0 °F 30% 30.27 in 10.0 mi North - - N/A   Clear
4:53 PM 36.0 °F - 10.0 °F 34% 30.27 in 10.0 mi North - - N/A   Clear
5:53 PM 34.0 °F - 10.0 °F 37% 30.30 in 10.0 mi North - - N/A   Mostly Cloudy
6:53 PM 28.0 °F - 12.0 °F 51% 30.35 in 10.0 mi North - - N/A   Overcast
7:53 PM 26.1 °F - 10.9 °F 53% 30.38 in 10.0 mi North - - N/A   Clear
8:53 PM 26.1 °F - 9.0 °F 49% 30.35 in 10.0 mi North - - N/A   Clear
9:53 PM 23.0 °F - 9.0 °F 55% 30.35 in 10.0 mi North - - N/A   Clear
10:53 PM 21.0 °F - 9.0 °F 60% 30.35 in 10.0 mi North - - N/A   Clear
11:53 PM 21.0 °F - 10.0 °F 63% 30.32 in 10.0 mi North - - N/A   Clear